Content
SEND FEEDBACK

Daily
Averages
Monthly
Summary
United States of America

BAYOU LA BATRE, ALABAMA


Home > North America > United States > Alabama
Elevation: 0 meters     Latitude: 30 23N     Longitude: 088 14W

WEATHER
 
SELECT A DAY
Number of Records: 200,117;   Date Range: 8/14/97 - 11/25/14
 
SHARE

PRINT THIS DATA

[ ← Previous Day ]
WEATHER ALMANAC - 7 AUGUST, 2014
[ Next Day → ]
[ °F ]   °C
Weather ElementAverageHighLow
Temperature26 °C32.8 °C (11:53 am)22.8 °C (2:53 am)
Dewpoint23.9 °C25.6 °C (2:01 pm)22.2 °C (2:53 am)
Humidity89.1 %100 % (1:50 am)59 % (11:53 am)
Barometer1015.6 hPa1017.3 hPa (1:36 am)1013.5 hPa (5:53 pm)
Wind Speed2.1 km/h13 km/h (1:53 pm)
Weather ElementAverage
Visibility9 km
Wind DirectionNE (48.6 °)

Weather ElementTotal
Precipitation1.02 mm
Cooling Degree Days9.4 (Base 18.3)
Growing Degree Days17.8 (Base 10)
Averaged from 37 records on 7 August, 2014
WEATHER CONDITIONS BREAKOUT
WIND DIRECTION BREAKOUT
WEATHER BY HOUR - 7 AUGUST, 2014
[ °F ]   °C
Local TimeTemperatureDewpointHumidityBarometerVisibilityWind DirectionWind SpeedGust SpeedPrecipitationEventsConditions
12:53 AM24.4 °C23.9 °C97 %1016.3 hPa4.8 kmCalmClear
1:20 AM24.4 °C23.9 °C97 %1015.6 hPa2.9 kmCalmClear
1:37 AM24.4 °C23.9 °C97 %1015.6 hPa3.2 kmCalmClear
1:50 AM24 °C24 °C100 %1015.2 hPa6.4 kmCalmClear
1:53 AM23.9 °C23.3 °C96 %1015.6 hPa4.8 kmCalmClear
2:01 AM23.9 °C23.3 °C96 %1015.2 hPa3.2 kmCalmClear
2:12 AM24.4 °C23.9 °C97 %1015.2 hPa4.8 kmCalmClear
2:53 AM23.9 °C23.3 °C96 %1015.2 hPa4.8 kmCalmClear
3:03 AM23.3 °C22.8 °C97 %1014.9 hPa3.2 kmCalmClear
3:17 AM23.3 °C22.8 °C97 %1015.2 hPa6.4 kmCalmClear
3:53 AM23.3 °C22.8 °C97 %1015.2 hPa3.2 kmCalmClear
4:12 AM23.3 °C22.8 °C97 %1014.9 hPa1.6 kmCalmMist
4:19 AM23.3 °C22.8 °C97 %1014.9 hPa0.8 kmCalmFogFog
4:24 AM23.3 °C22.8 °C97 %1014.9 hPa1.9 kmCalmPartly Cloudy
4:39 AM23.3 °C22.8 °C97 %1015.2 hPa4.8 kmCalmPartly Cloudy
4:53 AM23.3 °C22.8 °C97 %1015.6 hPa6.4 kmCalmClear
5:53 AM22.8 °C22.2 °C96 %1015.9 hPa8 kmCalmClear
6:53 AM23.3 °C22.8 °C97 %1016.3 hPa8 kmCalmClear
7:53 AM26.7 °C24.4 °C87 %1016.9 hPa12.9 kmCalmClear
8:53 AM28.3 °C24.4 °C79 %1016.9 hPa16.1 kmWNW (290°)9.3 km/hClear
9:53 AM30.6 °C24.4 °C69 %1016.9 hPa16.1 kmWest (260°)11.1 km/hClear
10:50 AM31 °C24 °C66 %1017.3 hPa16.1 kmVariable7.4 km/hMostly Cloudy
10:53 AM30.6 °C24.4 °C69 %1017.3 hPa16.1 kmWest (280°)5.6 km/hMostly Cloudy
11:03 AM31.7 °C24.4 °C65 %1016.9 hPa16.1 kmNorthScattered Clouds
11:53 AM32.8 °C23.9 °C59 %1016.3 hPa16.1 kmSW (220°)7.4 km/hPartly Cloudy
12:53 PM31.1 °C25 °C70 %1015.9 hPa16.1 kmSSW (210°)13 km/hMostly Cloudy
1:53 PM27.2 °C24.4 °C85 %1015.6 hPa4 kmSSW (210°)11.1 km/h0.51 mmRainRain
2:01 PM27.8 °C25.6 °C88 %1015.2 hPa6.4 kmSouth (180°)7.4 km/h0.25 mmRainLight Rain
2:53 PM26.7 °C24.4 °C87 %1015.2 hPa9.7 kmCalm0.25 mmMostly Cloudy
3:53 PM28.9 °C24.4 °C76 %1014.9 hPa16.1 kmCalmClear
5:53 PM27.8 °C25.6 °C88 %1013.5 hPa12.9 kmCalmClear
6:53 PM27.8 °C25.6 °C88 %1013.9 hPa11.3 kmCalmClear
7:53 PM26.7 °C25 °C90 %1014.6 hPa14.5 kmCalmClear
8:53 PM25.6 °C25 °C96 %1014.9 hPa16.1 kmCalmClear
9:53 PM25.6 °C25 °C96 %1014.9 hPa12.9 kmSSE (150°)5.6 km/hClear
10:53 PM25 °C24.4 °C96 %1014.9 hPa8 kmCalmClear
11:53 PM25 °C24.4 °C96 %1014.6 hPa14.5 kmCalmClear
Hourly data recorded from KPQL, located 0 kilometers away from Bayou La Batre, Alabama







STORIES FROM OUR PARTNERS